Regional Weather Roundup
Issued by NWS

Home | Current Version | Previous Version | Graphics & Text | Print | Product List | Glossary On
Versions: 1 2 3 4 5 6 7 8 9 10 11 12 13 14 15 16 17 18 19 20 21 22 23 24 25 26 27 28 29 30 31 32 33 34 35 36 37 38 39 40 41 42 43 44 45 46 47 48 49 50
000
ASUS43 KOAX 270002
RWRNE

WEATHER ROUNDUP FOR NEBRASKA
NATIONAL WEATHER SERVICE OMAHA NE
700 PM CDT FRI AUG 26 2016

NOTES: SATELLITE DATA IS BEING USED TO AUGMENT CLOUD COVER ABOVE
       12000 FEET.
       "FAIR" INDICATES FEW OR NO CLOUDS BELOW 12,000 FEET WITH NO
       SIGNIFICANT WEATHER AND/OR OBSTRUCTIONS TO VISIBILITY.

  * THESE STATIONS DO NOT REPORT WEATHER SUCH AS RAIN...SNOW OR FOG.

NEZ001>004-019>022-054>056-270100-
NEBRASKA PANHANDLE

CITY           SKY/WX    TMP DP  RH WIND       PRES   REMARKS
SCOTTSBLUFF    CLOUDY    67  52  58 SE16      30.05R
6HR MIN TEMP:  66; 6HR MAX TEMP:  73;

ALLIANCE       MOSUNNY   65  53  65 SE13      30.05F
6HR MIN TEMP:  58; 6HR MAX TEMP:  70;

CHADRON        CLOUDY    74  53  48 S18       29.99S
6HR MIN TEMP:  67; 6HR MAX TEMP:  75;

KIMBALL        LGT RAIN  62  59  90 E17G23    30.04F
SIDNEY         CLOUDY    64  56  75 S12       30.11S
6HR MIN TEMP:  57; 6HR MAX TEMP:  70; 6HR PCP: TRACE;

$$

NEZ057>060-069>072-079>082-270100-
SOUTHWEST NEBRASKA

CITY           SKY/WX    TMP DP  RH WIND       PRES   REMARKS
NORTH PLATTE   CLOUDY    62  60  93 E3        30.06F
6HR MIN TEMP:  62; 6HR MAX TEMP:  77; 6HR PCP:  0.05;

IMPERIAL       CLOUDY    60  57  89 E8        30.05S
6HR MIN TEMP:  59; 6HR MAX TEMP:  72; 6HR PCP:  0.59;

LEXINGTON      LGT RAIN  67  62  84 N5        30.04S
MCCOOK         CLOUDY    67  62  84 N13       30.03R
6HR MIN TEMP:  66; 6HR MAX TEMP:  76; 6HR PCP:  0.02;

OGALLALA       CLOUDY    60  57  88 CALM      30.07S
$$

NEZ005>010-023>029-035>040-094-270100-
NORTH CENTRAL NEBRASKA

CITY           SKY/WX    TMP DP  RH WIND       PRES   REMARKS
VALENTINE      CLOUDY    63  57  81 SE7       30.04S
6HR MIN TEMP:  60; 6HR MAX TEMP:  70; 6HR PCP:  0.11;

AINSWORTH      CLOUDY    65  58  80 CALM      30.05F
BROKEN BOW     CLOUDY    67  58  72 E5        30.05F
6HR MIN TEMP:  67; 6HR MAX TEMP:  72;

O`NEILL        CLOUDY    71  56  60 E6        30.07S
ORD            CLOUDY    70  54  56 E5        30.04S
6HR MIN TEMP:  70; 6HR MAX TEMP:  74;

THEDFORD       CLOUDY    63  60  90 E3        30.07S
$$

NEZ041-046>049-061>064-073>077-083>087-270100-
SOUTH CENTRAL NEBRASKA

CITY           SKY/WX    TMP DP  RH WIND       PRES   REMARKS
GRAND ISLAND   CLOUDY    67  62  84 E7        30.05S
6HR MIN TEMP:  67; 6HR MAX TEMP:  74;

AURORA         CLOUDY    64  64 100 CALM      30.05S FOG
HASTINGS       CLOUDY    67  63  87 E6        30.05S
6HR MIN TEMP:  67; 6HR MAX TEMP:  72;

HEBRON         PTSUNNY   72  67  84 N5        30.01F
HOLDREGE       SUNNY     70  58  65 E6        30.02F
KEARNEY *      SUNNY     70  59  68 NE6       30.02F
YORK           CLOUDY    64  64 100 CALM      30.04F FOG
$$

NEZ011>018-030>034-042>045-270100-
NORTHEAST NEBRASKA

CITY           SKY/WX    TMP DP  RH WIND       PRES   REMARKS
NORFOLK        CLOUDY    68  59  73 E9        30.04F
6HR MIN TEMP:  68; 6HR MAX TEMP:  72;

ALBION         CLOUDY    68  59  73 E9        30.05S
BLAIR          CLOUDY    68  64  85 E8        30.04F
FREMONT        CLOUDY    67  60  78 NE7       30.04F
TEKAMAH        CLOUDY    66  62  87 NE7       30.05F
6HR MIN TEMP:  66; 6HR MAX TEMP:  72; 6HR PCP:  0.03;

WAYNE          PTSUNNY   69  62  78 E5        30.06F
$$

NEZ050>053-065>068-078-088>093-270100-
SOUTHEAST NEBRASKA

CITY           SKY/WX    TMP DP  RH WIND       PRES   REMARKS
LINCOLN        CLOUDY    70  65  84 NE10      30.03S
6HR MIN TEMP:  67; 6HR MAX TEMP:  70; 6HR PCP: TRACE;

OMAHA EPPLEY   CLOUDY    69  63  81 E8        30.03F
6HR MIN TEMP:  68; 6HR MAX TEMP:  71; 6HR PCP:  0.02;

BEATRICE       CLOUDY    72  66  82 E7        30.01S
FALLS CITY     RAIN      71  71 100 E8        29.99F FOG
6HR MIN TEMP:  68; 6HR MAX TEMP:  76; 6HR PCP:  0.14;

NEBRASKA CITY  CLOUDY    67  67 100 NE6       30.02S
PLATTSMOUTH    CLOUDY    69  65  86 NE7       30.03S
$$

NEZ044-045-051>053-067-270100-
OMAHA AREA

CITY           SKY/WX    TMP DP  RH WIND       PRES   REMARKS
OMAHA EPPLEY   CLOUDY    69  63  81 E8        30.03F
6HR MIN TEMP:  68; 6HR MAX TEMP:  71; 6HR PCP:  0.02;

BLAIR          CLOUDY    68  64  85 E8        30.04F
FREMONT        CLOUDY    67  60  78 NE7       30.04F
MILLARD        PTSUNNY   70  63  79 E6        30.02F
OFFUTT AFB     CLOUDY    69  65  86 NE8       30.03S
PLATTSMOUTH    CLOUDY    69  65  86 NE7       30.03S
WAHOO          CLOUDY    67  63  84 NE7       30.03F
$$




USA.gov is the U.S. government's official web portal to all federal, state and local government web resources and services.